Wind_Speed
2 2 2 5 7 7 5 5 7 4 5 5 5 4 4 4 4 3 5 8 5 3 7 13 18 20 14 11 10 9 7 10 12 10 9 11 11 10 11 12 13 14 15 19 22 23 25 29 30 30 30 31 31 32 36 38 39 39 38 37 37 37 38 37 36 35 34 34 33 32 33 33 31 28 26 25 25 25 24 22 20 18 17 16 15 16
3 2 6 9 7 6 4 4 5 4 3 3 5 5 5 5 5 5 5 8 6 2 5 9 17 22 17 11 11 11 9 9 12 11 10 13 13 12 14 15 15 14 12 11 12 16 21 24 26 29 30 32 34 35 39 40 40 39 38 38 37 36 37 38 37 35 34 35 34 33 33 32 29 27 27 26 26 26 24 22 20 19 18 16 16 17
3 4 10 8 2 2 4 5 5 4 3 3 3 4 5 5 5 6 7 9 7 2 5 8 12 17 17 13 11 11 11 10 11 12 12 14 15 13 15 16 16 15 9 8 10 14 19 23 27 28 29 34 37 38 40 40 39 38 38 38 37 36 38 38 38 37 35 34 34 32 31 30 27 26 26 26 26 25 24 22 20 19 18 17 16 17
3 6 7 3 2 3 5 6 5 4 3 4 4 3 5 5 5 5 5 6 7 4 5 8 9 10 12 13 11 10 10 10 9 11 11 12 15 16 16 16 17 17 13 12 12 12 15 20 24 27 29 33 34 34 37 38 38 38 39 39 38 38 38 38 38 37 35 34 32 30 29 28 26 25 26 25 25 25 24 22 21 20 18 17 17 17
9 9 1 2 2 5 6 7 5 4 3 4 5 5 6 6 6 6 5 7 8 7 6 6 9 8 6 10 11 8 8 10 9 9 9 10 12 15 16 15 16 18 17 16 15 13 13 15 22 28 29 30 32 34 38 40 40 40 41 41 40 40 39 39 38 37 35 33 31 28 26 25 24 23 25 25 25 25 24 23 22 20 19 18 17 17
11 7 1 3 5 4 5 6 5 5 3 4 5 8 9 8 7 6 6 6 5 6 4 3 7 9 6 9 12 10 9 11 11 10 10 10 10 11 12 13 14 16 17 16 17 17 16 18 24 27 27 28 31 36 40 41 41 40 40 41 41 40 40 39 38 38 36 35 33 31 28 26 24 23 25 27 27 26 25 24 22 20 19 18 17 17
4 2 5 6 5 4 5 5 5 5 4 4 4 8 10 9 8 8 7 5 3 5 5 3 4 6 3 6 11 12 12 13 13 12 11 9 8 9 10 11 13 14 13 13 14 15 17 19 21 22 27 31 34 38 39 38 38 39 39 40 41 40 39 39 39 39 38 37 35 34 31 29 27 25 25 26 27 26 25 23 22 20 19 18 18 18
2 4 4 4 3 3 4 4 5 6 5 5 5 7 8 9 10 10 8 6 4 5 9 5 3 3 4 5 8 10 13 15 14 14 13 10 9 11 12 13 14 15 15 13 13 14 15 17 20 24 30 35 38 38 36 35 38 40 40 41 40 39 38 38 39 40 40 39 37 35 32 30 29 28 26 25 26 26 25 23 22 21 19 18 18 18
3 2 2 2 1 3 5 5 6 5 5 6 7 8 8 8 9 9 7 6 6 5 9 10 4 3 5 5 7 6 13 16 16 16 17 16 14 13 14 14 14 15 16 16 16 17 17 18 23 29 33 38 39 36 35 37 39 39 39 40 39 38 38 39 40 41 40 40 38 36 33 30 29 28 27 26 26 25 25 24 23 21 20 20 19 19
1 2 4 4 3 5 6 6 4 3 5 6 7 7 8 8 7 7 6 5 6 5 8 13 7 3 4 5 6 5 8 14 15 16 18 19 17 13 12 12 12 13 14 15 17 18 19 24 30 34 36 37 36 35 35 35 35 36 37 39 39 39 38 39 40 41 40 39 38 37 34 31 29 27 27 27 26 26 25 24 24 23 22 21 20 20
2 3 3 4 4 5 4 5 4 4 7 6 5 5 6 7 5 5 5 4 5 5 8 15 12 5 4 5 5 5 6 10 12 14 16 18 16 11 9 11 12 13 13 14 15 16 20 28 35 36 34 33 32 31 30 31 33 35 36 38 39 38 37 38 40 41 40 39 38 37 35 34 31 29 29 28 27 27 26 26 25 24 23 22 21 21
4 5 4 3 5 4 4 5 5 6 8 4 2 3 4 4 4 3 3 4 5 6 8 13 13 8 7 6 5 7 9 10 11 12 14 15 14 11 10 11 12 14 14 14 14 15 16 20 25 27 26 27 28 28 29 33 35 35 36 38 37 36 37 38 39 40 40 39 38 37 36 35 34 32 32 31 30 29 29 28 26 25 23 23 22 22
4 6 5 4 4 6 4 4 5 5 6 4 3 3 3 3 3 4 4 4 5 7 8 11 10 8 8 7 9 13 14 12 9 9 12 15 14 12 11 12 11 13 14 14 14 14 15 15 16 18 22 25 27 29 33 35 36 36 37 38 38 37 37 38 38 39 39 38 38 37 36 36 35 34 34 33 32 32 31 30 28 27 26 25 25 24
3 4 4 5 4 6 7 5 5 4 4 5 4 3 4 4 4 4 4 4 5 7 10 11 9 6 5 6 12 18 19 16 14 11 12 14 14 13 13 13 12 14 15 14 15 15 16 16 16 19 24 27 29 33 34 34 36 36 36 38 38 37 37 37 38 38 38 38 38 37 36 36 35 35 35 34 33 33 33 32 31 31 30 29 28 27
4 5 4 6 4 5 10 10 9 6 4 4 4 3 5 5 4 4 3 4 5 6 8 11 8 5 5 6 10 15 16 15 14 13 12 11 12 13 12 13 13 15 15 14 15 16 17 18 19 22 26 29 32 34 33 33 34 34 35 38 38 37 37 38 37 38 38 38 37 36 36 36 36 36 35 35 34 34 34 33 32 32 32 31 30 29
6 7 5 7 6 6 9 11 10 6 3 4 4 4 5 6 5 4 4 5 5 3 5 7 5 4 5 4 6 9 11 11 12 12 11 11 12 11 11 12 13 14 15 15 14 16 17 17 19 23 26 30 32 31 31 33 34 35 36 38 39 38 38 37 37 38 38 37 36 36 36 35 35 35 35 34 34 34 34 34 33 33 33 32 31 30
5 5 4 3 5 7 8 7 8 7 3 2 3 4 5 6 6 4 4 4 2 1 3 4 4 4 6 6 6 9 11 11 11 11 11 13 13 13 12 12 13 13 14 15 15 15 17 17 18 23 26 29 30 30 33 35 38 39 39 38 38 36 35 36 37 37 36 36 35 35 35 35 36 36 35 35 34 34 34 33 33 32 32 32 31 30
3 4 5 4 6 9 7 6 6 8 6 2 3 4 4 4 6 4 3 4 1 1 4 4 5 6 7 7 6 9 10 11 11 11 11 13 14 14 13 12 13 15 16 16 17 17 18 17 17 22 27 31 33 34 37 38 38 38 37 38 39 37 37 38 38 37 36 36 35 35 35 36 36 36 36 35 35 34 34 33 32 31 32 32 31 29
2 2 6 5 6 6 3 5 5 6 7 6 5 3 1 2 4 4 4 4 2 1 3 4 5 7 7 5 5 9 12 14 13 11 11 13 15 15 13 12 13 15 15 15 16 15 16 16 17 23 28 31 33 33 33 34 34 35 36 38 39 39 38 38 37 36 36 36 36 35 35 36 36 36 36 35 34 34 33 33 32 31 32 32 31 30
2 1 4 4 2 4 3 3 5 4 5 6 5 3 3 3 4 4 4 3 3 2 1 3 4 4 5 5 5 7 11 13 13 11 12 15 15 14 13 11 12 13 13 14 14 14 16 16 20 27 32 32 31 31 30 32 33 35 37 37 37 36 34 34 34 34 34 35 35 34 34 35 36 36 35 34 34 34 33 32 32 31 31 31 31 30
1 2 2 4 4 3 4 3 5 4 3 4 4 3 3 2 3 3 3 2 3 3 2 2 3 4 5 5 7 10 12 11 10 10 11 14 16 15 14 12 11 13 13 14 15 15 16 17 20 27 30 28 27 27 28 31 33 34 35 35 35 34 33 34 34 34 34 34 34 34 35 35 36 35 34 34 34 34 33 32 31 31 31 31 31 30
2 2 2 4 4 3 5 4 2 3 2 2 3 3 4 4 3 3 4 2 1 2 3 3 3 6 6 4 6 10 12 10 10 11 11 12 14 15 14 13 13 13 14 15 16 17 17 17 17 21 23 23 24 26 28 31 32 33 33 33 34 34 34 35 35 34 34 34 35 35 36 36 35 35 34 34 33 33 32 32 32 31 31 31 32 31
1 2 2 4 4 6 10 10 5 3 2 2 5 5 3 3 4 3 3 3 2 2 2 1 2 7 7 4 4 6 7 7 10 11 11 11 12 12 13 13 12 13 15 16 17 16 16 16 15 17 20 23 25 27 29 31 32 34 36 35 34 34 35 35 35 35 34 34 34 35 36 36 35 35 35 34 34 33 33 32 32 31 31 32 32 31
2 1 1 4 4 6 8 7 5 3 3 2 6 6 5 4 4 4 4 3 0 2 2 1 2 8 6 2 3 6 6 6 7 8 10 11 10 10 13 14 11 12 14 16 16 15 14 12 12 13 16 19 23 26 29 31 32 33 34 34 34 35 35 35 34 33 33 33 33 34 35 36 35 35 35 34 34 34 33 33 33 31 31 32 32 31
2 1 0 2 4 3 1 1 1 2 4 4 4 4 5 5 4 2 1 2 1 3 3 1 3 7 5 3 7 9 8 8 7 6 7 10 10 9 10 11 11 11 12 14 14 13 12 11 12 13 13 17 22 26 28 31 31 31 33 34 34 34 34 34 34 33 33 33 32 34 36 36 35 35 35 35 34 34 34 33 33 32 32 33 32 31
2 2 2 2 1 2 3 4 4 3 2 2 2 3 5 6 5 3 0 1 1 2 2 2 5 8 8 10 13 13 11 12 11 9 7 8 10 10 9 8 9 10 12 15 15 13 13 13 14 15 14 17 22 25 27 29 30 31 32 33 33 34 34 34 33 33 33 32 33 34 35 36 35 35 35 34 34 34 34 34 33 33 33 33 32 31
2 2 4 4 4 4 4 4 4 2 3 2 2 2 3 5 6 5 2 2 3 2 4 5 7 9 13 14 13 12 11 10 11 11 10 8 8 9 9 7 8 10 12 15 14 14 14 14 15 16 16 18 23 26 27 29 30 31 31 31 32 33 33 33 33 33 33 33 33 33 35 36 35 35 35 34 34 34 34 34 34 34 33 33 32 32
2 2 5 6 7 9 8 8 6 1 2 4 3 3 4 5 7 6 3 4 3 1 5 7 6 7 12 12 10 11 11 9 9 9 10 11 9 8 9 8 9 9 11 13 14 16 17 16 16 16 16 17 22 25 26 28 29 31 31 32 33 32 32 32 32 33 33 33 33 33 34 35 34 34 35 34 34 34 34 35 35 34 33 32 32 32
2 3 5 5 6 10 10 11 9 4 3 4 4 5 6 6 8 6 5 5 5 4 6 8 10 10 11 11 11 11 10 9 9 9 8 10 10 7 9 10 11 12 12 13 14 16 17 17 16 17 16 17 20 23 25 26 27 28 29 30 31 32 32 32 32 32 33 33 33 33 33 33 33 34 35 34 34 35 35 35 35 35 34 32 33 33
1 4 5 5 4 5 4 7 8 4 4 4 4 6 6 6 7 6 4 5 6 6 8 9 15 16 12 12 12 11 9 8 8 7 7 9 10 6 8 11 12 13 14 15 16 16 16 16 16 17 16 16 18 22 24 25 26 27 27 28 29 31 31 32 32 32 32 32 32 32 33 33 33 33 34 35 35 35 36 35 35 35 34 33 33 34
3 4 3 6 2 3 1 5 8 6 5 4 3 4 5 3 3 4 3 3 4 6 9 10 11 12 10 10 9 9 9 6 6 9 8 8 9 6 5 10 12 14 15 16 16 16 15 15 14 15 16 16 19 24 25 26 27 28 28 28 30 31 32 32 32 31 31 32 31 32 33 33 33 34 35 35 36 37 37 35 35 35 35 34 34 34
5 3 2 3 1 3 5 7 9 8 4 2 2 4 4 3 1 3 3 3 3 6 9 9 6 6 7 6 5 8 9 8 8 9 8 8 7 4 2 7 10 12 15 16 16 14 14 14 14 16 17 17 20 25 26 26 26 26 27 29 31 31 31 31 32 31 31 31 31 32 33 34 34 34 35 36 36 37 37 35 35 36 35 35 35 34
5 2 2 1 1 4 4 7 8 4 4 3 4 4 2 2 2 1 2 4 5 5 6 6 6 7 7 6 5 8 9 8 8 8 6 8 8 5 2 5 7 8 9 10 12 14 14 14 15 17 18 19 23 28 30 30 30 30 32 34 33 32 31 31 32 31 30 31 32 33 34 34 34 34 35 36 37 37 36 35 35 36 36 36 35 35
1 2 2 0 1 4 6 4 0 3 3 3 4 3 2 3 2 1 4 6 5 4 5 6 8 10 10 8 7 8 8 7 5 6 7 6 6 6 5 3 6 6 4 3 6 10 11 12 12 13 16 20 24 27 28 30 30 30 31 31 31 31 30 30 30 30 30 31 32 34 34 35 35 35 36 37 36 36 36 36 36 36 36 35 35 35
3 3 2 0 1 3 5 5 5 2 2 3 4 5 3 3 5 6 8 8 5 2 5 7 10 11 11 10 9 8 9 8 4 6 9 7 5 4 3 3 5 5 6 5 5 6 7 9 9 10 14 19 21 22 23 26 25 24 25 27 28 29 29 28 28 28 30 31 32 34 35 36 35 35 36 37 37 36 37 38 37 35 35 36 37 37
4 2 1 0 1 1 3 3 1 2 3 2 5 6 3 2 6 5 3 5 2 3 5 8 10 11 11 12 11 9 8 7 3 4 10 8 4 5 5 5 5 5 6 8 9 8 8 9 11 11 14 17 21 23 24 26 25 24 25 27 28 28 28 28 28 28 29 31 32 34 36 37 36 35 36 37 37 36 37 37 37 36 36 37 37 36
5 2 1 1 1 1 0 2 2 1 2 2 4 4 1 0 4 3 1 3 1 5 6 9 11 13 12 11 13 11 6 5 5 5 10 11 6 6 7 7 6 6 6 6 8 10 12 14 14 15 16 18 21 22 23 25 26 25 24 26 27 28 28 28 28 29 30 31 33 35 36 37 37 36 36 37 37 37 37 37 37 38 38 37 35 34
5 4 2 1 0 0 1 2 3 3 1 3 6 5 2 2 3 2 0 3 2 5 7 10 10 12 11 10 12 12 6 4 4 7 10 12 10 6 6 8 8 7 5 5 5 7 12 16 18 20 22 22 22 23 24 25 26 25 23 24 26 27 27 27 28 30 31 32 34 35 35 36 37 37 37 37 38 38 38 38 37 37 38 38 37 36
2 2 2 2 1 0 1 1 2 1 1 4 5 6 4 2 3 0 2 2 4 5 9 11 10 10 9 8 10 9 3 2 3 7 7 8 10 10 8 4 6 7 6 5 6 7 10 15 18 19 21 22 23 26 27 27 27 26 23 24 26 26 26 27 29 30 30 31 32 34 35 36 37 37 37 37 38 39 38 35 35 36 38 39 38 38
4 3 3 2 1 0 1 0 2 2 3 3 4 7 8 5 0 3 2 3 4 6 9 11 12 11 8 6 7 5 1 4 5 7 8 10 10 8 7 5 3 4 5 6 4 6 7 10 15 18 20 24 27 27 27 28 27 25 24 24 25 25 27 29 30 29 29 29 31 33 35 36 37 38 38 38 38 36 33 32 34 36 35 34 33 33
3 3 2 1 1 1 0 1 2 3 3 4 6 10 10 5 2 3 3 4 3 6 9 9 10 11 8 6 4 2 3 5 7 9 12 12 9 6 5 6 4 2 2 7 8 6 5 8 13 16 18 23 26 27 28 28 26 24 24 24 24 27 31 32 31 30 30 30 32 33 35 37 38 38 39 40 39 35 33 33 34 33 30 29 29 28
3 4 2 1 1 1 0 2 3 3 4 3 4 9 8 2 2 3 4 3 2 6 8 8 9 10 9 7 5 4 6 7 7 8 9 8 5 3 3 3 4 5 2 6 9 10 10 11 13 13 12 15 20 26 29 29 26 25 25 25 28 34 36 33 31 31 32 32 33 35 35 36 36 37 37 40 40 35 33 33 32 30 30 31 33 32
1 2 3 2 1 1 1 1 2 3 4 3 3 6 4 1 3 5 5 4 4 6 6 7 8 8 7 9 8 8 9 8 5 5 5 4 4 2 0 2 3 3 3 4 6 10 13 11 10 12 13 15 21 25 28 28 27 26 25 28 34 37 35 33 33 34 34 34 34 35 33 32 34 36 37 38 38 35 32 32 32 32 34 35 34 32
1 1 1 2 1 1 1 2 2 3 4 1 1 2 3 4 6 5 5 5 5 4 4 5 8 8 7 8 10 10 10 9 7 5 4 4 4 4 1 4 5 4 3 3 6 11 14 11 10 12 13 16 21 24 25 25 23 22 25 30 33 33 32 34 35 34 34 34 34 34 32 30 31 33 33 35 37 37 34 33 33 33 35 35 32 30
1 1 2 3 2 2 4 5 5 6 5 3 2 4 6 7 7 6 6 5 5 5 4 5 9 10 9 8 8 7 7 8 9 8 7 6 5 6 4 1 3 4 4 5 6 9 12 12 12 14 13 15 20 23 23 23 20 19 21 21 20 22 25 27 28 29 30 32 32 32 32 31 30 31 31 34 37 36 34 34 33 32 32 31 30 29
2 2 2 2 3 3 5 6 6 7 8 7 5 6 6 5 5 5 6 5 3 4 5 6 8 9 9 9 7 5 5 7 8 7 7 7 6 6 5 5 3 2 4 5 6 8 10 10 11 13 12 13 17 19 19 19 18 18 17 14 13 16 17 18 20 22 24 27 29 29 30 30 29 29 31 33 34 34 34 35 34 33 31 30 29 28
1 1 2 2 2 3 4 5 5 6 9 9 7 5 5 4 4 4 5 5 4 5 6 7 7 8 9 9 7 6 6 5 5 6 6 6 7 7 6 5 4 3 3 5 7 9 11 11 9 10 11 11 13 16 17 16 14 14 15 14 13 14 15 17 18 19 19 23 27 28 29 30 29 28 29 31 32 33 32 33 34 33 31 30 29 27
2 1 2 3 2 2 5 8 9 8 8 7 4 4 4 4 4 4 5 5 5 5 6 6 6 8 10 10 9 8 8 6 5 4 4 4 5 6 6 6 5 5 5 6 7 9 10 9 7 8 10 10 12 15 16 15 12 12 14 16 17 20 22 23 24 22 20 23 27 28 28 30 30 30 30 30 32 33 31 31 33 32 33 34 34 33
3 1 2 3 4 4 4 7 10 8 5 5 5 5 5 4 5 5 5 4 4 6 7 8 8 6 6 9 9 8 8 8 6 5 4 4 4 5 5 6 6 7 7 6 7 9 10 9 9 10 10 10 12 14 15 14 13 13 17 20 23 26 28 28 27 26 24 26 28 29 30 31 31 31 31 30 32 33 33 35 36 35 36 37 38 38
5 4 3 3 4 5 4 6 8 6 5 8 10 9 7 6 6 6 6 6 7 8 8 9 9 7 5 7 8 7 7 7 7 6 5 5 4 5 6 6 6 7 9 8 6 9 10 10 11 11 11 11 12 13 14 15 15 16 19 22 25 26 24 21 20 21 22 23 24 26 29 30 29 28 28 29 30 30 29 30 33 34 34 35 36 36
7 8 6 3 5 7 4 3 4 4 5 7 9 10 9 6 6 8 8 7 7 8 9 8 9 8 7 7 7 6 6 6 5 4 4 4 4 5 6 7 7 7 8 8 6 7 8 9 10 11 11 12 14 15 15 15 16 18 21 24 25 25 23 21 22 22 22 22 22 23 26 27 27 26 27 28 28 28 26 25 25 26 27 29 31 33
Wind_Direction
131 153 211 215 225 221 217 223 239 293 7 341 315 295 278 276 264 256 262 279 302 297 236 227 237 239 225 215 221 221 201 199 206 189 179 190 188 195 204 204 203 204 210 214 213 209 201 195 190 188 187 186 186 187 188 188 190 191 190 190 191 193 194 194 195 196 197 198 200 202 204 206 208 209 208 209 216 219 219 220 218 220 226 231 235 238
64 154 233 230 228 231 232 243 261 302 349 301 288 294 294 278 274 279 274 289 311 317 261 241 239 240 229 212 214 212 199 204 207 191 182 189 188 193 202 204 205 211 213 201 197 202 200 193 185 184 185 184 185 187 190 191 191 191 191 192 192 191 192 193 194 194 194 194 195 196 198 201 204 205 207 210 213 216 218 217 217 221 227 230 234 237
0 250 247 243 239 284 265 251 253 255 239 252 264 273 276 270 281 285 275 280 286 279 270 261 249 244 235 221 216 215 211 212 202 190 187 188 187 195 201 200 202 207 203 183 189 195 195 191 183 182 185 187 188 188 190 192 191 191 192 193 192 191 192 193 194 195 194 195 196 197 199 202 202 203 207 211 212 213 214 214 216 221 226 229 231 233
272 253 251 242 195 233 260 254 246 249 237 231 236 245 256 255 261 273 280 284 282 270 263 275 274 259 243 229 219 215 220 227 209 189 191 190 186 194 200 198 197 196 191 191 196 192 192 191 183 184 189 190 189 188 190 192 191 191 192 193 192 191 192 193 194 195 195 195 196 198 202 204 203 202 204 207 209 210 211 212 214 218 223 226 227 229
246 251 283 8 250 225 250 260 244 238 250 238 226 231 250 252 241 249 280 303 309 295 259 270 283 266 229 225 224 214 216 233 227 198 196 203 194 195 200 199 195 191 190 190 190 188 187 189 189 190 191 189 189 190 192 192 192 192 193 193 192 191 191 192 193 193 193 191 190 192 193 195 195 196 198 199 200 203 206 210 212 215 219 222 223 225
255 250 179 281 269 236 243 258 237 205 232 257 231 226 241 256 257 255 267 284 315 301 252 198 258 257 208 210 221 212 208 221 229 221 209 211 207 200 201 201 197 193 193 190 187 185 183 189 194 191 189 189 192 196 195 193 193 193 193 192 192 191 191 192 192 191 191 189 188 187 184 184 184 184 190 194 195 198 202 208 211 214 217 219 219 218
257 174 167 217 233 235 243 254 235 193 214 257 218 214 230 241 252 256 254 247 234 263 257 169 214 264 253 223 223 210 211 218 223 231 225 212 207 206 204 201 197 193 192 192 192 189 186 189 190 188 189 192 197 200 197 193 193 193 193 193 192 191 190 191 191 191 190 189 189 190 189 187 186 184 189 195 197 200 204 207 211 213 215 216 214 211
135 128 179 204 201 232 248 254 229 185 196 251 226 211 226 229 235 242 242 241 232 256 274 259 202 265 281 267 246 211 208 221 221 227 234 224 203 203 211 206 196 191 187 187 190 190 192 193 189 189 193 197 200 200 195 192 193 194 193 192 192 191 190 191 191 190 191 190 190 191 191 190 190 190 191 194 197 201 204 206 209 212 211 209 208 207
90 122 182 169 218 244 236 234 222 193 204 244 236 220 226 230 231 234 231 237 240 244 271 267 231 236 259 270 280 228 204 217 220 220 229 230 215 203 208 208 198 192 188 185 185 186 191 194 194 195 198 201 201 198 194 194 194 194 192 192 192 191 190 192 192 191 192 193 192 191 190 189 190 192 193 194 197 200 202 204 205 207 204 200 200 202
33 199 176 155 211 239 235 234 220 201 225 252 259 240 235 238 233 233 225 225 238 225 247 257 238 216 264 268 279 264 210 213 217 219 224 228 227 213 202 204 197 193 192 189 187 186 189 192 195 200 202 203 201 198 196 195 193 192 192 191 192 191 191 192 193 192 193 194 193 192 191 189 186 187 189 192 195 198 200 201 201 200 198 196 196 199
284 250 200 179 218 233 247 259 248 236 246 273 303 277 254 248 236 241 228 204 238 236 234 249 240 211 251 258 237 243 233 214 212 218 223 227 231 223 201 199 194 192 195 195 192 190 192 194 197 200 202 202 200 197 194 192 193 193 192 192 192 191 191 192 193 193 193 194 194 194 192 190 187 184 185 187 190 193 195 197 197 196 195 195 196 198
272 258 252 230 230 225 249 269 260 254 254 263 309 274 266 260 236 246 241 196 225 245 232 243 241 217 230 250 238 251 254 238 220 217 222 224 226 222 207 200 194 192 195 195 194 193 193 198 200 200 201 201 198 194 192 192 192 192 192 192 191 191 192 193 193 194 194 194 195 195 194 192 190 187 186 188 190 191 193 196 196 194 194 195 197 201
263 245 247 247 235 209 217 260 258 262 262 235 225 240 238 244 222 214 227 205 217 244 238 239 240 227 230 234 236 253 260 256 248 228 221 220 217 215 208 199 195 195 196 195 194 193 192 196 199 197 198 198 196 195 194 192 191 191 192 191 190 192 192 193 193 193 194 195 195 195 194 193 192 190 191 192 193 194 195 197 197 195 195 196 199 204
279 267 234 224 240 202 197 223 234 236 234 210 195 182 185 210 214 199 211 209 214 238 239 239 243 240 246 229 221 239 252 256 260 249 232 223 212 210 207 196 192 195 197 198 195 193 194 194 194 195 196 195 197 198 196 192 190 190 190 190 191 192 192 193 193 193 194 196 196 195 195 194 192 192 193 195 195 196 197 199 200 200 201 202 204 208
255 279 222 202 217 188 198 213 214 214 222 219 213 196 197 207 215 208 192 192 211 232 229 230 234 214 220 221 204 222 241 246 251 247 238 231 215 208 207 195 190 195 197 198 199 197 196 194 193 195 196 196 198 198 194 192 191 189 189 190 191 191 192 193 193 193 195 196 195 195 194 194 193 193 194 196 198 199 200 202 203 204 206 207 210 212
226 258 242 215 211 191 204 213 205 208 252 268 250 230 217 207 218 232 206 191 197 221 224 218 222 212 222 238 211 225 247 250 255 251 232 229 221 208 206 198 191 195 196 196 199 200 199 197 196 195 196 199 199 195 192 192 190 189 190 191 191 192 193 193 193 194 195 195 194 194 194 194 194 194 195 197 199 201 203 205 206 207 209 210 211 212
200 249 267 238 232 224 218 209 190 185 205 282 256 236 233 209 206 228 243 238 200 238 267 229 220 244 259 264 236 234 253 257 260 257 234 225 221 211 207 199 193 194 195 196 196 198 199 198 198 199 199 199 196 192 193 194 191 190 190 189 189 192 192 193 194 194 194 194 193 193 194 193 193 194 196 197 199 202 205 207 208 208 209 210 211 211
181 260 272 235 242 245 219 198 202 194 192 242 250 247 275 229 203 199 235 261 242 232 273 244 209 213 232 252 234 222 245 257 253 250 240 227 218 215 211 201 194 193 193 196 196 196 199 197 196 199 202 201 196 194 194 194 192 191 189 187 188 190 193 194 194 194 193 192 192 192 193 193 194 196 198 199 201 203 205 206 207 208 210 211 211 210
155 283 276 234 234 259 214 178 209 208 199 219 236 224 188 206 212 205 210 221 200 205 292 278 232 209 211 235 223 209 228 247 250 246 243 233 220 216 212 201 198 195 191 194 196 198 198 196 196 199 203 203 199 196 195 192 190 188 187 188 190 193 194 194 193 193 193 192 192 193 193 193 194 196 198 199 201 203 204 206 207 208 210 210 210 210
118 106 289 291 283 293 293 196 194 203 204 217 240 227 152 166 209 215 210 194 167 176 273 291 271 237 215 209 208 221 230 237 243 245 243 236 226 218 210 198 195 195 191 191 195 199 198 197 199 201 202 201 196 193 191 188 186 186 187 189 192 193 194 193 192 191 191 191 191 192 192 192 193 196 197 199 201 202 204 206 206 207 209 209 209 210
139 154 251 296 296 266 272 222 171 171 192 204 224 224 185 193 228 241 246 201 160 162 184 247 279 272 248 207 206 236 246 237 233 235 239 237 229 223 216 202 191 191 192 190 192 198 199 200 202 203 201 196 190 187 186 185 185 186 188 190 191 191 191 191 192 191 190 190 190 190 189 190 192 194 197 199 200 202 204 205 206 206 208 208 209 209
202 172 200 282 296 257 255 253 166 136 150 181 203 213 205 193 197 242 276 277 196 171 188 207 254 269 265 227 205 233 253 258 249 241 239 240 237 234 228 211 192 187 189 191 195 198 198 200 201 198 192 184 181 183 183 184 185 185 188 191 191 190 191 191 190 190 190 189 189 190 188 189 191 193 195 197 197 200 202 204 204 205 207 208 209 210
159 153 211 265 264 248 255 259 246 194 172 247 252 236 218 179 166 194 240 275 326 323 283 235 262 268 261 221 207 239 255 265 265 255 246 241 237 238 239 226 199 187 189 191 195 198 198 199 194 185 180 179 181 183 182 183 186 187 189 190 190 192 193 192 190 190 189 188 188 188 187 187 190 191 193 194 195 198 200 202 203 205 208 209 209 209
114 152 259 282 283 273 269 265 254 209 151 225 249 227 210 195 172 173 187 182 174 296 307 22 276 269 263 220 234 255 251 258 278 278 263 254 242 230 234 233 211 191 191 193 195 198 196 190 181 176 178 181 182 182 182 185 188 189 189 189 190 193 193 190 190 189 188 187 187 186 185 186 188 190 191 193 194 196 199 200 202 205 208 208 208 208
150 159 185 294 320 326 344 81 272 226 162 194 226 212 208 199 158 122 107 100 124 240 230 151 245 257 264 332 319 306 307 310 311 310 282 265 256 239 229 226 214 193 189 194 196 193 186 175 173 178 181 182 183 183 184 186 188 188 189 189 191 193 191 189 189 188 187 186 185 184 185 186 188 189 191 192 194 196 198 199 201 204 205 206 207 207
154 163 155 206 211 165 170 182 213 215 186 211 216 189 201 189 159 148 24 79 207 275 274 215 247 271 298 323 318 313 319 319 317 325 319 285 267 259 242 219 206 193 189 192 191 186 181 178 179 182 182 183 183 184 185 186 187 189 189 190 191 190 188 188 188 187 186 185 184 184 184 186 188 189 191 192 193 195 196 198 200 202 203 205 207 207
123 187 204 220 217 201 207 228 228 169 129 189 241 239 203 173 147 129 113 181 196 298 301 250 244 281 297 300 300 300 305 306 305 316 322 311 284 264 251 224 200 197 194 189 186 184 183 182 183 181 182 184 183 184 186 186 187 187 187 188 190 189 188 187 186 186 186 186 186 184 185 186 188 189 191 192 193 194 195 197 200 201 202 204 207 207
123 213 217 223 235 237 250 276 288 313 160 190 217 259 222 170 138 130 165 199 163 119 285 264 245 263 277 278 277 282 288 291 293 303 314 312 294 258 242 226 204 202 201 192 187 186 184 183 184 182 181 182 183 185 187 187 187 187 186 187 187 187 188 186 185 186 187 187 187 187 187 188 189 190 191 192 192 193 195 196 199 201 202 204 206 207
161 239 211 204 242 245 251 272 277 266 245 222 214 239 231 181 151 155 194 196 166 189 252 273 277 269 266 270 269 271 274 276 282 292 306 308 298 258 220 211 201 199 200 198 194 190 188 185 182 181 181 180 181 183 184 186 187 187 187 188 186 187 187 186 185 186 186 187 188 189 188 188 188 189 190 190 190 192 194 195 197 199 201 203 206 207
207 248 204 183 247 261 258 285 286 262 244 244 229 234 229 195 170 165 201 217 213 237 251 264 275 274 266 261 265 272 270 258 269 296 314 316 309 276 210 199 197 195 196 197 195 192 190 186 180 178 178 177 180 182 183 184 186 186 186 186 186 187 188 186 185 186 186 188 189 189 187 186 186 187 188 189 189 191 193 194 194 195 197 202 205 206
215 249 200 157 216 293 262 279 288 269 243 246 252 236 211 188 164 154 190 235 254 270 267 259 265 273 267 254 256 272 278 277 298 315 320 315 313 304 227 205 196 193 195 195 195 192 187 183 178 175 176 181 184 183 183 184 184 184 185 186 187 188 187 186 186 187 188 189 188 187 186 185 185 186 187 187 188 190 192 193 192 193 195 198 201 203
196 256 310 133 199 275 209 217 246 244 215 190 228 224 183 152 176 185 194 220 234 264 280 284 277 267 261 256 267 284 291 307 314 311 314 311 313 332 264 224 208 198 198 194 189 188 183 177 175 177 182 185 184 183 183 182 181 182 186 188 189 188 186 186 187 188 189 189 187 186 185 184 185 185 185 186 187 189 191 192 191 190 192 195 197 199
185 226 285 164 281 273 223 214 227 205 120 146 219 222 197 219 256 279 294 264 241 245 271 281 268 259 271 289 299 293 293 303 306 299 305 309 312 341 357 252 230 209 208 203 188 181 180 179 180 184 185 184 183 185 185 182 181 185 188 189 188 186 185 186 187 188 188 187 186 185 184 184 184 184 185 186 187 189 189 188 188 189 191 193 194 197
197 229 253 202 258 280 300 311 343 90 107 215 259 296 285 266 253 261 272 258 242 235 252 272 285 291 301 296 275 272 278 279 287 294 291 283 289 324 358 303 244 200 179 207 201 187 183 184 185 185 184 185 186 186 185 183 186 188 188 187 185 184 185 186 185 185 186 186 185 184 184 184 185 185 185 185 186 187 186 186 188 190 190 190 192 195
293 280 267 30 168 270 322 9 50 53 232 244 313 312 288 264 246 244 247 238 222 248 291 313 316 308 310 303 286 284 281 272 271 286 280 260 243 274 309 286 255 205 158 156 183 194 188 182 177 177 182 184 181 179 180 184 186 185 183 182 182 184 186 186 185 185 186 185 185 184 184 184 185 185 184 184 185 186 186 187 189 189 189 190 193 196
251 260 214 103 330 315 355 30 42 266 263 329 321 288 279 296 274 267 247 229 222 20 345 330 322 314 318 319 317 316 297 292 307 269 268 268 235 226 243 250 245 225 190 169 170 179 182 179 177 174 173 173 173 175 180 183 183 181 181 181 182 184 186 185 186 187 187 187 186 185 185 184 184 183 182 183 183 185 187 187 187 188 190 192 193 196
196 203 246 284 334 6 3 279 286 330 9 343 294 266 225 281 283 309 338 256 313 39 2 328 324 322 322 323 323 325 328 348 357 310 290 295 277 225 224 232 229 226 221 199 183 180 179 178 175 169 166 166 172 178 180 181 180 179 179 180 182 184 185 186 188 189 189 189 187 187 187 185 183 182 182 182 183 186 189 188 187 189 191 190 190 193
179 184 211 230 315 53 61 320 329 15 26 254 255 265 247 186 241 275 261 266 325 25 351 327 317 312 316 322 324 328 354 37 348 299 290 296 298 287 250 222 209 206 212 217 207 184 180 181 177 173 172 170 175 183 182 180 180 177 176 181 184 185 186 188 191 192 191 190 189 188 187 185 183 182 183 184 185 188 191 190 189 189 190 190 191 193
70 136 132 89 50 66 78 5 312 311 241 243 262 293 316 293 244 178 81 303 309 343 334 318 303 301 311 318 319 327 21 129 256 270 279 302 312 310 297 249 198 187 178 184 206 206 198 191 179 172 172 173 180 187 184 180 179 177 178 183 185 186 189 193 196 195 193 192 189 188 188 187 185 184 185 187 189 191 192 191 188 189 191 192 194 194
14 28 40 26 331 240 127 237 262 241 257 291 313 318 322 323 335 93 87 266 287 325 321 309 304 305 310 312 315 326 143 187 238 268 289 306 309 301 302 310 270 207 160 147 193 233 225 197 175 167 175 184 188 186 181 179 178 179 182 184 183 187 194 198 199 197 194 192 190 190 189 188 188 188 187 190 192 192 191 188 188 189 189 189 192 194
342 347 13 40 304 319 83 280 284 266 269 311 331 319 316 331 80 125 201 226 276 313 302 294 296 298 302 310 312 296 241 246 265 282 290 297 303 309 319 334 352 7 142 160 182 204 200 186 184 183 188 192 187 180 178 177 177 181 185 183 185 193 199 200 198 194 193 191 190 191 191 190 191 190 188 190 193 190 187 187 188 186 183 185 191 194
340 329 337 26 358 348 167 233 284 286 252 248 305 311 316 347 149 222 240 232 253 280 284 289 292 293 305 314 300 277 273 270 270 279 284 287 290 302 322 349 41 55 102 166 175 179 173 175 189 197 198 191 183 180 179 178 180 185 186 185 193 200 199 197 194 190 189 189 190 192 193 192 192 190 187 189 190 186 182 183 185 183 183 189 194 196
344 323 320 313 290 321 338 312 319 295 246 228 309 325 333 340 248 263 284 285 262 265 287 299 292 293 314 321 315 307 301 297 285 271 278 297 304 296 46 91 88 81 88 111 146 169 169 168 181 189 186 182 182 183 183 183 186 188 187 194 202 201 197 193 191 188 187 187 189 191 192 191 190 188 184 184 185 181 178 181 184 185 188 192 193 193
335 2 305 291 293 357 327 285 241 248 252 247 5 298 266 267 271 273 286 290 285 292 307 299 294 309 334 327 317 317 315 319 325 313 309 338 333 304 258 133 125 119 108 103 137 161 163 160 168 173 174 177 180 183 186 190 193 194 198 205 205 200 195 192 188 186 184 184 187 188 187 187 185 182 177 175 177 178 179 181 183 184 188 191 191 188
305 226 221 255 266 231 240 254 264 278 287 296 276 261 265 276 279 276 282 294 302 305 305 301 306 322 340 330 317 323 323 321 329 331 327 330 328 318 317 349 109 117 119 114 131 156 161 161 160 157 157 168 176 181 186 191 196 203 210 211 205 201 200 192 184 182 182 181 183 184 182 181 178 175 173 174 177 178 177 178 180 182 185 189 190 187
248 226 202 233 270 265 263 269 274 285 291 287 276 270 271 278 285 289 293 294 293 293 295 297 303 317 331 329 327 336 328 317 327 334 329 324 325 327 330 337 10 87 118 119 122 137 142 139 140 138 136 151 168 173 178 183 191 201 207 203 198 204 201 183 176 185 185 180 179 179 177 175 173 172 174 177 181 182 180 179 181 182 184 188 190 189
264 241 238 256 288 314 304 280 271 282 288 287 286 284 280 278 278 287 296 304 310 307 297 290 302 325 332 328 329 337 329 323 329 332 333 337 334 332 333 336 353 34 94 121 127 132 132 127 130 135 132 137 156 166 170 172 179 189 195 191 185 184 179 173 181 195 193 179 175 176 176 173 170 169 172 175 181 184 183 182 184 185 185 185 187 188
350 6 296 275 260 262 272 280 294 298 282 267 265 277 290 301 302 300 305 309 306 303 297 299 324 348 340 325 326 338 340 337 337 338 351 355 342 341 346 344 345 6 44 87 111 126 131 128 132 142 141 140 153 166 169 167 166 170 175 178 177 174 176 181 190 197 194 179 173 175 176 173 171 171 172 175 180 184 185 185 187 188 188 190 191 191
308 299 278 294 296 282 280 304 322 326 312 304 312 311 310 319 319 313 317 323 321 321 328 335 344 350 330 314 319 341 351 342 335 348 13 15 359 357 360 354 351 1 20 54 98 121 130 134 138 142 146 150 158 168 174 175 175 171 168 173 180 182 184 189 190 190 188 180 175 174 174 173 174 176 175 175 180 185 190 193 193 194 196 198 200 201
328 315 325 348 322 309 323 336 333 330 318 313 317 318 321 327 330 328 336 351 347 339 342 343 336 330 326 321 326 346 359 345 334 348 12 20 14 10 4 360 359 0 8 29 80 110 120 135 142 138 138 147 156 166 174 177 179 179 177 179 181 182 186 186 177 171 173 175 174 173 170 170 173 175 175 177 180 185 191 197 198 199 201 202 204 207
339 318 318 313 285 284 291 307 318 318 293 287 301 311 316 330 347 340 340 347 341 334 339 338 326 326 334 330 328 353 4 345 335 357 13 10 14 21 17 13 10 2 5 22 57 89 102 123 134 130 132 145 154 160 165 167 170 177 184 185 182 179 178 168 153 153 163 168 167 167 165 165 168 173 177 180 183 184 187 191 197 201 205 207 207 208
Height
772 777 780 779 777 776 775 775 774 773 776 777 777 777 775 773 770 762 756 748 745 751 749 741 737 731 732 734 730 730 731 733 733 735 738 737 737 742 745 746 746 747 744 740 744 749 750 751 754 758 762 765 767 768 770 771 772 774 775 778 780 783 787 789 792 794 796 798 800 802 804 806 808 810 811 813 814 815 817 819 820 821 822 823 823 824
774 781 779 774 774 775 776 775 774 775 777 777 778 780 778 776 772 762 757 751 747 756 753 741 737 729 728 732 729 727 731 732 731 732 736 734 734 738 741 744 744 743 741 742 746 749 751 752 754 757 760 762 763 764 766 767 769 772 774 776 778 781 785 787 789 792 794 796 798 799 802 804 807 809 810 811 813 814 816 818 819 820 821 822 822 823
780 780 775 772 775 776 776 775 775 776 777 778 778 780 780 776 771 764 758 752 748 755 754 743 739 730 724 727 728 726 727 727 726 727 729 730 731 734 736 738 740 742 743 745 745 746 749 751 751 755 758 759 760 760 762 764 767 771 772 774 777 780 782 785 787 790 792 795 797 799 801 804 806 807 809 811 812 814 815 817 818 819 820 821 821 822
783 776 770 772 775 775 775 774 776 778 778 779 778 781 780 773 774 771 760 753 750 752 751 746 744 735 726 724 725 726 724 721 722 725 725 725 726 728 729 731 733 737 742 743 743 744 747 750 751 753 755 757 759 760 761 763 765 767 769 771 774 777 780 783 785 788 791 794 797 800 801 803 805 807 809 810 812 813 814 816 817 818 818 819 820 821
778 770 768 772 773 774 775 774 776 779 780 779 777 779 778 772 773 772 763 757 753 750 747 748 750 739 730 728 725 724 725 721 720 723 726 725 723 722 722 725 727 730 734 737 740 742 745 748 749 749 752 755 757 757 757 758 760 763 765 768 770 774 777 780 783 786 789 793 796 798 800 802 804 806 807 808 809 811 813 814 815 816 817 818 819 820
774 768 769 772 773 774 776 775 775 778 780 780 776 774 774 772 771 769 765 763 766 763 748 747 757 743 727 728 724 720 723 722 718 719 723 724 722 722 722 723 725 726 727 730 733 735 739 742 744 746 750 754 754 753 753 754 757 760 763 766 769 771 774 777 780 783 787 789 792 795 797 799 800 803 804 805 807 809 811 812 814 815 816 817 818 819
769 766 767 770 772 773 775 776 773 773 779 780 772 766 768 770 770 769 767 767 774 770 748 744 760 754 736 730 723 718 721 721 718 718 719 720 722 722 721 721 722 724 726 729 731 732 734 737 740 743 747 749 749 748 750 754 757 759 762 765 767 769 772 775 777 780 783 786 789 791 793 795 797 800 802 804 806 808 810 812 813 814 815 816 817 819
764 765 766 768 771 773 774 775 770 769 777 776 765 762 765 766 768 768 768 769 768 763 751 744 754 762 755 739 723 718 720 719 718 718 716 716 719 719 717 716 717 719 722 725 729 732 734 735 735 738 741 743 743 745 750 753 754 756 759 763 765 767 770 773 775 777 780 782 785 788 791 793 795 798 801 803 806 808 810 811 812 813 814 815 817 818
761 765 767 768 772 773 772 769 765 766 771 768 759 760 761 761 764 763 765 767 763 764 764 751 750 765 762 739 723 721 721 719 717 715 712 709 711 713 713 712 714 715 717 719 723 726 730 732 733 734 736 737 739 743 747 749 751 754 757 761 764 765 768 770 772 775 777 779 782 785 788 791 794 797 799 802 805 807 809 810 811 812 813 815 816 818
762 763 764 767 770 770 766 763 763 765 766 761 757 759 758 758 759 759 763 764 762 768 770 754 749 763 761 740 731 730 724 717 713 709 706 702 702 706 710 711 713 714 715 716 717 720 723 725 727 729 732 735 738 741 744 748 751 755 757 759 761 762 765 767 770 772 775 777 780 783 785 788 792 795 798 801 804 806 807 809 810 811 813 814 816 817
764 762 761 763 764 763 763 762 763 764 762 760 760 761 760 759 758 758 759 759 765 770 764 750 745 757 760 743 732 729 720 710 707 704 702 699 699 702 706 709 710 712 714 714 715 716 718 720 721 725 729 733 737 740 744 748 750 753 755 757 758 760 763 765 767 770 773 775 778 780 783 786 789 792 795 799 801 804 806 807 809 810 812 813 815 816
766 766 764 760 759 760 762 763 761 760 759 761 763 764 765 764 761 763 760 761 772 770 754 743 740 750 758 742 727 721 712 705 703 702 701 700 700 701 703 705 707 708 710 712 714 715 717 720 721 725 729 733 737 739 741 744 746 750 752 754 757 759 761 762 765 768 771 773 776 778 781 784 786 789 792 796 799 801 803 806 808 809 811 812 814 815
767 765 763 759 757 758 762 765 763 760 758 762 765 767 773 772 767 771 769 765 770 762 744 737 738 745 745 732 722 716 707 704 703 699 698 697 698 699 700 702 704 705 706 708 710 712 715 718 721 725 728 730 734 736 737 739 741 745 748 751 754 756 758 760 763 766 769 771 774 776 779 781 784 787 790 793 796 799 801 804 806 807 809 811 812 813
773 765 760 761 759 755 759 764 765 761 757 761 763 765 773 773 772 774 769 764 764 754 738 732 737 741 733 720 714 709 703 700 699 697 695 692 692 695 695 697 700 701 703 705 706 708 710 713 716 719 722 725 727 730 732 736 738 741 744 747 750 753 756 758 760 764 767 769 771 774 777 780 782 785 788 791 794 797 799 801 803 805 806 808 810 811
785 775 760 757 756 752 753 756 757 755 753 755 754 756 761 762 764 766 761 759 757 748 736 734 739 738 729 714 702 699 698 695 693 693 692 690 688 688 690 692 696 698 699 701 703 704 705 707 710 713 717 719 720 724 729 733 736 739 741 743 746 750 752 755 758 761 764 767 769 772 775 778 780 783 786 789 792 795 797 799 801 803 805 807 809 810
787 776 755 749 749 747 749 747 747 753 756 753 748 753 756 750 748 750 749 745 743 743 738 733 731 723 712 703 692 692 694 692 692 690 688 689 686 686 688 689 693 695 695 698 700 702 703 704 706 709 711 713 715 721 726 730 732 734 737 740 742 746 749 752 755 758 761 764 768 770 773 776 778 782 785 788 791 793 795 797 799 801 803 806 807 809
776 767 751 747 747 743 744 743 743 749 755 753 750 751 746 737 738 745 747 739 740 750 741 726 724 717 709 704 693 692 694 691 691 689 686 686 683 684 686 686 689 691 692 694 695 698 700 701 704 706 708 710 712 718 722 724 727 729 732 736 740 745 748 751 753 756 760 763 766 768 771 774 776 779 782 785 788 791 793 795 797 800 802 804 806 808
765 762 750 746 747 741 739 741 741 739 743 750 751 745 737 733 734 739 747 744 746 754 740 723 725 721 719 714 696 692 696 692 689 687 684 683 681 681 682 682 685 686 687 690 690 693 694 696 700 702 705 706 707 711 715 719 723 726 730 733 737 741 744 746 750 753 757 760 763 766 768 771 774 777 780 783 786 789 791 794 796 798 801 803 805 807
760 761 750 745 747 741 737 740 742 737 735 741 742 736 738 746 743 737 742 745 746 753 743 727 722 717 715 711 695 691 694 689 685 684 683 682 679 678 678 679 682 682 684 687 688 690 691 693 696 698 700 702 705 709 713 718 723 725 729 731 734 737 740 744 748 751 755 758 760 763 766 769 772 775 779 781 784 787 789 791 794 797 799 801 803 805
758 763 755 747 750 749 743 739 740 738 734 735 736 734 736 744 744 736 733 733 738 750 748 734 725 716 705 697 690 688 687 684 684 683 680 678 675 673 673 675 678 680 681 683 685 687 688 689 691 692 695 698 702 707 712 717 721 723 726 729 732 736 740 744 747 750 753 756 758 761 764 767 771 773 777 779 782 785 787 789 792 795 797 799 802 804
758 767 761 752 752 753 747 738 733 734 736 737 739 740 737 735 737 735 730 725 727 739 743 739 734 716 693 685 683 681 680 681 681 681 678 674 669 666 666 668 672 675 676 678 680 682 683 685 686 687 692 697 702 707 710 714 718 720 724 727 729 734 738 741 744 747 751 753 756 759 762 765 768 771 775 777 780 782 785 787 790 793 796 798 800 802
758 764 762 756 753 749 743 735 731 731 736 739 740 738 735 732 735 740 736 725 721 727 730 733 736 716 689 682 680 676 676 678 677 678 677 672 667 664 661 662 666 669 671 673 674 675 678 680 682 686 692 697 701 704 708 712 715 718 721 724 728 731 735 738 741 744 748 751 753 756 759 763 766 770 773 775 778 781 783 786 788 791 794 796 798 800
754 760 762 758 753 746 739 734 731 732 736 742 742 735 731 729 731 737 740 732 728 730 725 725 731 714 688 681 681 677 678 678 676 676 673 668 665 663 660 658 661 663 665 667 669 670 672 675 678 684 689 694 696 699 704 708 711 713 715 720 725 729 732 735 738 742 745 748 751 754 757 761 764 767 770 773 776 778 781 784 787 790 792 794 797 799
756 762 763 759 749 738 732 730 728 730 738 744 741 733 728 725 723 726 732 732 734 736 729 730 734 713 686 681 682 679 678 677 678 676 672 666 661 661 660 657 658 660 661 663 664 666 668 672 677 683 687 691 694 697 701 704 707 710 713 717 721 725 729 733 736 740 743 746 749 752 755 758 761 765 768 771 774 776 779 782 785 788 790 793 795 797
759 765 767 767 757 737 728 730 728 728 734 736 731 727 723 719 718 722 726 729 733 733 729 734 734 709 686 683 680 675 674 673 673 675 673 667 659 655 656 655 655 657 659 661 662 664 668 672 676 680 683 686 690 693 697 700 704 707 710 713 718 723 727 730 734 737 741 744 747 750 753 756 759 762 765 768 771 774 777 780 783 786 788 791 793 795
758 765 765 766 761 745 732 731 729 727 727 725 722 721 720 717 718 722 725 730 733 731 728 730 725 705 690 687 682 675 672 670 668 669 670 667 661 654 652 653 653 653 655 657 660 663 666 669 672 675 679 682 686 690 694 697 700 704 707 711 715 720 724 727 731 735 738 742 745 747 750 753 756 760 763 766 769 772 775 778 781 784 786 789 791 794
758 763 760 757 754 745 734 730 727 724 723 722 720 718 717 716 716 718 725 730 730 730 729 724 719 712 702 694 688 679 674 674 671 667 665 664 663 657 651 650 651 651 651 652 655 659 663 666 669 672 676 679 683 687 690 693 697 700 705 709 714 718 721 724 728 732 735 739 742 745 747 750 753 757 761 764 768 771 774 776 779 782 784 787 789 792
755 756 755 756 752 745 739 735 730 725 720 718 718 716 716 713 712 717 723 724 724 729 727 715 711 716 707 693 687 680 675 674 672 668 664 661 662 660 652 649 650 650 650 650 652 656 659 663 666 669 673 677 681 685 688 692 695 698 702 706 711 715 719 722 725 729 733 736 739 742 745 748 752 755 759 763 766 769 772 774 777 779 782 785 788 790
749 747 745 750 748 743 742 738 732 728 722 719 718 717 715 711 710 714 717 716 718 723 721 711 709 712 702 689 682 675 671 671 669 665 663 659 659 657 652 648 648 649 650 650 651 653 655 658 661 665 670 673 678 682 686 690 694 697 701 705 708 712 716 720 723 727 731 734 737 740 743 747 750 754 758 761 764 767 770 772 774 777 780 783 786 788
742 738 736 744 742 736 739 736 729 728 723 718 717 715 713 711 709 710 712 711 712 714 713 711 711 708 696 685 677 668 667 669 665 660 659 659 658 653 649 647 645 646 648 648 648 650 652 654 658 662 667 671 675 679 683 687 691 695 699 703 707 710 714 718 722 725 728 731 734 738 741 745 748 752 756 758 761 764 768 770 773 775 778 780 783 786
738 733 731 741 741 734 736 734 728 728 723 717 716 714 713 711 708 708 709 708 708 708 706 707 711 705 689 678 674 668 666 666 660 655 656 658 657 652 648 647 644 643 645 644 645 647 649 653 657 662 666 669 671 675 679 683 687 692 697 701 704 708 712 716 720 723 726 729 732 736 739 742 746 749 752 755 758 762 765 768 771 773 775 778 781 784
739 735 728 733 736 732 733 734 731 729 725 720 717 714 711 709 706 705 705 704 705 706 705 705 706 697 679 671 671 667 664 660 656 654 654 656 655 652 649 647 645 643 642 641 643 646 649 653 657 660 663 665 668 672 676 680 686 690 694 698 702 706 710 714 717 721 724 727 730 733 736 740 743 746 749 752 756 759 762 766 768 771 773 776 779 782
735 733 726 728 730 724 723 731 730 723 721 720 715 711 709 708 708 706 704 703 704 706 708 705 698 686 675 671 670 665 661 658 655 654 654 654 653 650 648 648 647 644 644 643 643 645 648 651 653 655 658 661 665 669 672 677 681 685 689 693 698 703 707 711 714 718 722 724 727 730 733 737 740 743 746 749 753 756 760 763 766 768 770 773 777 780
731 730 727 727 729 721 717 723 723 721 722 719 714 715 714 710 709 708 705 703 703 704 705 702 696 688 682 677 671 663 659 657 656 656 655 654 652 648 646 648 648 645 645 646 646 646 648 649 651 654 657 661 664 668 672 676 679 682 687 692 697 702 705 709 712 716 719 722 724 727 730 734 737 740 743 747 751 754 757 760 763 765 768 771 775 778
732 730 728 728 729 725 721 722 722 724 724 718 715 720 720 715 713 710 706 704 703 703 704 702 698 693 686 679 673 667 662 658 658 658 654 652 651 647 646 648 649 645 643 645 648 650 650 651 653 656 659 662 666 670 674 677 681 685 689 693 697 701 704 708 711 713 716 719 721 724 727 730 734 737 740 744 747 751 753 756 759 763 766 769 771 774
731 729 727 728 729 727 726 727 726 725 723 720 721 722 720 719 717 710 704 701 700 701 703 703 699 694 687 681 675 670 664 659 658 657 652 648 648 647 645 646 647 646 642 641 645 648 650 651 653 655 659 663 667 670 673 676 680 685 689 691 695 699 702 706 709 711 713 716 718 721 723 726 730 734 737 741 744 748 751 753 756 760 763 766 769 772
728 728 725 725 728 730 729 728 724 721 722 724 723 719 717 718 716 709 705 701 698 701 704 703 700 695 690 684 677 671 666 660 657 653 647 643 643 645 646 645 643 643 643 642 642 645 648 651 653 657 660 664 668 670 673 677 680 684 687 691 694 697 700 703 705 707 710 712 714 717 720 723 727 731 735 738 741 745 748 750 753 756 759 763 766 770
724 726 722 722 729 732 729 726 724 722 722 721 718 715 713 713 710 709 709 705 701 703 705 705 703 699 694 689 683 676 669 666 664 655 647 644 644 644 647 646 642 642 643 644 645 646 649 651 654 657 660 663 668 671 674 678 680 683 687 690 693 696 699 701 702 704 706 709 711 715 718 721 725 728 733 736 738 741 744 747 750 753 757 760 763 766
721 724 722 722 728 730 727 727 728 724 719 718 716 713 710 710 708 708 710 709 705 706 707 707 705 700 696 692 688 680 674 673 672 661 652 651 650 647 645 643 642 642 642 644 647 649 651 653 655 658 661 664 667 670 673 676 679 682 685 688 691 695 697 698 699 701 704 707 710 713 717 720 723 727 731 734 736 739 742 746 749 752 755 758 760 762
719 720 722 722 726 729 728 727 726 721 716 715 714 711 709 708 708 708 710 711 709 708 707 706 703 697 694 692 690 684 678 674 671 663 657 655 652 648 644 641 641 642 641 643 647 651 654 657 657 659 660 661 663 667 671 674 678 681 684 687 690 692 693 695 697 700 704 707 710 713 715 719 722 725 728 732 734 737 741 745 747 749 753 757 761 764
725 723 723 724 726 729 730 728 725 720 715 713 713 712 708 707 708 709 709 710 710 707 705 704 702 696 691 689 689 686 679 674 670 665 661 657 652 648 646 643 641 641 641 643 646 651 655 657 658 658 658 658 661 665 669 673 677 680 683 686 689 689 690 692 696 699 702 705 708 711 713 716 720 722 725 727 730 734 738 741 745 748 753 757 762 766
737 733 729 728 729 730 730 728 725 720 715 714 716 712 708 709 710 707 705 706 708 706 703 702 700 695 689 686 685 683 678 674 671 667 663 659 654 650 648 646 644 643 643 644 645 648 651 653 655 657 658 661 664 666 668 672 675 678 681 683 684 684 686 689 693 695 699 702 705 708 711 714 717 719 722 724 727 731 735 740 744 749 752 756 760 763
741 739 736 733 732 733 732 729 726 721 715 713 716 714 711 712 711 706 703 703 703 702 701 700 697 693 688 683 679 677 673 670 669 667 663 659 656 653 651 649 648 646 645 645 645 645 648 651 653 655 657 660 663 666 668 671 672 675 678 678 677 679 683 686 689 691 695 698 702 705 709 712 714 717 720 723 726 730 734 738 742 746 750 753 757 760
741 742 742 738 734 735 735 728 721 716 710 710 714 715 714 711 707 705 704 701 699 698 697 696 693 688 685 683 679 676 671 667 666 664 660 656 656 656 653 649 647 647 646 645 645 645 647 649 652 655 658 660 663 665 668 671 673 675 675 674 675 679 681 683 685 688 691 694 698 702 706 710 713 716 720 723 725 728 731 735 739 743 747 751 754 758
740 739 741 740 735 733 732 724 716 712 711 711 712 712 710 707 704 703 701 699 697 696 694 693 689 684 682 683 680 676 673 669 666 663 661 658 656 656 654 650 647 647 646 646 647 647 647 649 651 654 657 660 662 664 667 669 672 674 674 675 680 684 686 685 686 689 691 693 697 700 703 707 712 716 719 722 724 727 730 734 738 741 746 749 753 755
737 737 738 738 733 728 725 721 717 714 711 710 709 708 707 706 703 702 700 699 698 696 693 690 687 684 683 683 679 677 675 672 668 665 664 663 660 659 657 655 652 650 649 648 648 649 649 650 652 655 657 659 661 663 665 667 669 670 672 676 681 686 689 691 693 696 696 696 698 701 703 707 711 715 718 722 725 727 730 732 736 739 743 747 751 753
735 736 736 734 733 730 725 718 715 713 710 708 708 706 705 705 704 702 701 698 696 694 691 688 685 683 682 682 680 677 674 672 670 668 666 666 664 662 660 658 656 654 652 650 650 650 650 652 654 656 658 660 661 663 665 667 668 669 671 675 678 683 689 693 697 701 701 699 699 702 705 707 710 714 717 721 724 727 730 732 735 738 741 745 748 751
735 736 734 732 733 731 723 716 714 712 708 706 706 706 705 704 703 702 700 698 696 694 691 688 686 684 683 683 681 676 671 671 671 669 667 667 666 664 662 661 660 657 655 653 652 652 652 654 655 656 658 660 662 663 665 667 669 670 671 674 677 681 685 688 693 698 701 700 700 702 705 707 709 712 716 719 722 725 728 731 734 737 739 741 743 746
737 736 734 734 732 727 721 718 716 712 707 704 704 705 705 704 703 701 700 698 696 694 692 690 689 688 689 687 682 675 672 671 670 669 667 666 665 665 664 663 662 661 658 656 655 654 654 655 656 657 659 661 662 663 665 666 668 669 671 672 674 677 679 682 686 693 698 699 699 700 702 705 708 711 713 717 720 723 726 728 730 733 736 738 740 741
741 739 735 736 735 727 722 723 722 718 714 709 705 704 704 703 702 701 698 697 696 694 693 692 690 689 689 687 682 677 675 675 674 672 669 667 666 666 665 664 664 663 661 660 658 657 657 657 658 659 661 662 663 664 665 666 667 669 670 672 673 675 679 682 686 692 696 697 698 699 700 703 708 711 713 716 719 722 726 729 731 733 734 736 739 740
750 746 741 741 738 730 723 722 723 722 718 711 706 705 704 702 702 701 698 697 696 694 692 692 690 688 686 684 681 679 678 678 677 675 672 670 669 668 668 668 667 665 664 663 662 660 660 659 660 661 662 663 664 665 666 667 668 669 670 671 672 674 678 683 687 691 694 695 697 700 701 703 707 711 713 716 718 721 725 728 732 734 735 736 738 740